User: anonymous   Login
Location: Unspecified
(0.0000°N, 0.0000°E)
Time: 19:05:03
(UTC+00:00)
Language:

SBSS (USA 216) - Orbit

View from above orbital plane
View from above orbital plane
View from above satellite
View from above satellite

Ground track
Ground track

The orbit data is extracted from the following two-line orbital elements,

1 37168U 10048A   21136.78517400  .00000043  00000-0  12049-4 0  9990
2 37168  97.8677 358.7687 0000750  66.4072  67.9834 14.81646087574943
Epoch (UTC): 16 May 2021 18:50:39
Eccentricity: 0.0000750
inclination: 97.8677°
perigee height: 623 km
apogee height: 624 km
right ascension of ascending node: 358.7687°
argument of perigee: 66.4072°
revolutions per day: 14.81646087
mean anomaly at epoch: 67.9834°
orbit number at epoch: 57494

The dashed part of the orbit path shows where the satellite is in the earth's shadow,  

DLR